TimeEST,TemperatureF,Dew PointF,Humidity,Sea Level PressureIn,VisibilityMPH,Wind Direction,Wind SpeedMPH,Gust SpeedMPH,PrecipitationIn,Events,Conditions,WindDirDegrees,DateUTC
12:54 AM,23.0,17.1,78,29.98,10.0,Calm,Calm,-,N/A,,Overcast,0,2013-02-15 05:54:00
1:54 AM,21.9,17.1,82,29.98,10.0,Calm,Calm,-,N/A,,Partly Cloudy,0,2013-02-15 06:54:00
2:54 AM,19.0,15.1,85,29.97,10.0,Calm,Calm,-,N/A,,Clear,0,2013-02-15 07:54:00
3:54 AM,17.1,15.1,92,29.97,10.0,Calm,Calm,-,N/A,,Mostly Cloudy,0,2013-02-15 08:54:00
4:54 AM,18.0,16.0,92,29.96,10.0,Calm,Calm,-,N/A,,Overcast,0,2013-02-15 09:54:00
5:54 AM,19.9,17.1,89,29.97,10.0,Calm,Calm,-,N/A,,Overcast,0,2013-02-15 10:54:00
7:54 AM,24.1,19.0,81,29.95,10.0,Calm,Calm,-,N/A,,Overcast,0,2013-02-15 12:54:00
8:54 AM,27.0,19.9,75,29.96,10.0,Calm,Calm,-,0.00,,Overcast,0,2013-02-15 13:54:00
9:54 AM,32.0,19.9,61,29.95,10.0,Calm,Calm,-,0.00,,Mostly Cloudy,0,2013-02-15 14:54:00
10:54 AM,37.0,23.0,57,29.93,10.0,Calm,Calm,-,0.00,Rain,Light Rain,0,2013-02-15 15:54:00
11:54 AM,42.1,24.1,49,29.90,10.0,Variable,5.8,-,0.00,,Clear,0,2013-02-15 16:54:00
12:54 PM,44.1,25.0,47,29.89,10.0,SW,10.4,-,0.00,Rain,Light Rain,220,2013-02-15 17:54:00
1:54 PM,46.0,25.0,44,29.87,10.0,West,10.4,19.6,0.00,,Clear,270,2013-02-15 18:54:00
2:54 PM,46.9,24.1,41,29.88,10.0,SW,10.4,-,N/A,,Clear,230,2013-02-15 19:54:00
3:54 PM,45.0,24.1,44,29.88,10.0,SW,5.8,-,N/A,,Clear,230,2013-02-15 20:54:00
4:54 PM,44.1,24.1,45,29.89,10.0,WSW,3.5,-,N/A,,Clear,240,2013-02-15 21:54:00
5:54 PM,34.0,24.1,67,29.90,10.0,SW,3.5,-,N/A,,Clear,230,2013-02-15 22:54:00
6:54 PM,32.0,23.0,69,29.91,10.0,WSW,3.5,-,N/A,,Clear,250,2013-02-15 23:54:00
7:54 PM,33.1,21.9,64,29.92,10.0,West,3.5,-,N/A,,Mostly Cloudy,280,2013-02-16 00:54:00
8:54 PM,28.0,21.9,78,29.93,10.0,Calm,Calm,-,N/A,,Partly Cloudy,0,2013-02-16 01:54:00
9:54 PM,27.0,21.0,78,29.93,10.0,Calm,Calm,-,0.00,,Partly Cloudy,0,2013-02-16 02:54:00
10:54 PM,27.0,21.0,78,29.93,10.0,West,3.5,-,N/A,,Overcast,280,2013-02-16 03:54:00
11:54 PM,28.0,21.9,78,29.93,10.0,Calm,Calm,-,N/A,,Overcast,0,2013-02-16 04:54:00